TimeCST,TemperatureF,Dew PointF,Humidity,Sea Level PressureIn,VisibilityMPH,Wind Direction,Wind SpeedMPH,Gust SpeedMPH,PrecipitationIn,Events,Conditions,WindDirDegrees,DateUTC
12:32 AM,66.2,64.4,94,30.17,9.0,North,4.6,-,N/A,,Overcast,350,2013-11-23 06:32:00
12:46 AM,66.2,64.4,94,30.17,8.0,North,4.6,-,N/A,,Overcast,360,2013-11-23 06:46:00
12:53 AM,66.0,64.0,93,30.17,8.0,North,5.8,-,N/A,,Overcast,10,2013-11-23 06:53:00
1:24 AM,66.2,64.4,94,30.17,6.0,North,5.8,-,N/A,,Overcast,350,2013-11-23 07:24:00
1:53 AM,66.0,64.9,96,30.17,5.0,North,8.1,-,N/A,,Overcast,360,2013-11-23 07:53:00
2:53 AM,66.0,64.0,93,30.17,5.0,North,8.1,-,N/A,,Overcast,10,2013-11-23 08:53:00
3:36 AM,66.2,64.4,94,30.16,6.0,North,4.6,-,N/A,,Overcast,10,2013-11-23 09:36:00
3:53 AM,64.9,64.0,97,30.17,5.0,North,5.8,-,N/A,,Overcast,10,2013-11-23 09:53:00
4:53 AM,64.9,63.0,93,30.18,7.0,North,4.6,-,N/A,,Overcast,10,2013-11-23 10:53:00
5:53 AM,64.9,63.0,93,30.17,7.0,North,3.5,-,N/A,,Overcast,10,2013-11-23 11:53:00
6:53 AM,64.9,63.0,93,30.18,9.0,NNE,4.6,-,N/A,,Overcast,20,2013-11-23 12:53:00
7:53 AM,64.9,63.0,93,30.20,8.0,North,5.8,-,N/A,,Overcast,10,2013-11-23 13:53:00
8:53 AM,64.9,63.0,93,30.21,8.0,North,9.2,-,N/A,,Overcast,350,2013-11-23 14:53:00
9:53 AM,64.9,62.1,90,30.21,10.0,North,10.4,-,N/A,,Overcast,360,2013-11-23 15:53:00
10:53 AM,66.0,62.1,87,30.20,10.0,North,11.5,-,N/A,,Overcast,10,2013-11-23 16:53:00
11:08 AM,66.2,62.6,88,30.20,10.0,North,9.2,-,N/A,,Overcast,10,2013-11-23 17:08:00
11:36 AM,64.4,60.8,88,30.19,10.0,North,12.7,-,N/A,,Overcast,350,2013-11-23 17:36:00
11:53 AM,63.0,60.1,90,30.20,10.0,North,9.2,-,N/A,,Overcast,360,2013-11-23 17:53:00
12:53 PM,63.0,57.9,84,30.18,10.0,North,15.0,-,N/A,,Overcast,10,2013-11-23 18:53:00
1:04 PM,62.6,57.2,82,30.18,10.0,North,12.7,-,N/A,,Overcast,360,2013-11-23 19:04:00
1:53 PM,61.0,55.9,83,30.18,10.0,North,10.4,21.9,N/A,,Overcast,360,2013-11-23 19:53:00
2:53 PM,60.1,55.0,83,30.19,10.0,North,10.4,-,N/A,,Overcast,10,2013-11-23 20:53:00
3:24 PM,60.8,53.6,77,30.19,10.0,North,13.8,20.7,N/A,,Overcast,360,2013-11-23 21:24:00
3:53 PM,59.0,52.0,78,30.20,10.0,North,16.1,24.2,N/A,,Overcast,360,2013-11-23 21:53:00
4:53 PM,55.9,51.1,84,30.22,10.0,North,13.8,-,N/A,,Overcast,10,2013-11-23 22:53:00
5:53 PM,55.0,48.9,80,30.24,10.0,North,11.5,21.9,N/A,,Overcast,360,2013-11-23 23:53:00
6:17 PM,55.4,48.2,77,30.23,10.0,NNE,18.4,27.6,N/A,,Overcast,20,2013-11-24 00:17:00
6:53 PM,54.0,46.9,77,30.23,10.0,North,13.8,23.0,N/A,,Overcast,10,2013-11-24 00:53:00
7:53 PM,53.1,46.0,77,30.26,10.0,North,12.7,-,N/A,,Overcast,360,2013-11-24 01:53:00
8:19 PM,53.6,46.4,77,30.25,10.0,North,16.1,24.2,N/A,,Mostly Cloudy,10,2013-11-24 02:19:00
8:46 PM,51.8,46.4,82,30.26,10.0,North,19.6,27.6,N/A,,Overcast,360,2013-11-24 02:46:00
8:53 PM,52.0,45.0,77,30.27,10.0,North,17.3,27.6,N/A,,Overcast,10,2013-11-24 02:53:00
9:53 PM,51.1,43.0,74,30.27,10.0,North,13.8,24.2,N/A,,Overcast,10,2013-11-24 03:53:00
10:53 PM,51.1,39.9,66,30.28,10.0,NNE,15.0,25.3,N/A,,Overcast,20,2013-11-24 04:53:00
11:53 PM,50.0,39.0,66,30.30,10.0,North,16.1,23.0,N/A,,Overcast,10,2013-11-24 05:53:00